Weather History for KLAR - December, 2013

Change the Weather History Date:

Sunday, December 8, 2013

  Actual Average Record
Temperature  
Mean Temperature 0 °F 21 °F  
Max Temperature 10 °F 32 °F 55 °F (1981)
Min Temperature -11 °F 10 °F -28 °F (1978)
Degree Days  
Heating Degree Days 65 44  
Month to date heating degree days 470 344  
Since 1 July heating degree days 2592 2656  
Cooling Degree Days 0 0  
Month to date cooling degree days 0 0  
Year to date cooling degree days 162 67  
Moisture  
Dew Point -8 °F    
Average Humidity 77    
Maximum Humidity 91    
Minimum Humidity 63    
Precipitation  
Precipitation T in 0.01 in 0.21 in (1997)
Month to date precipitation 0.07 0.09  
Year to date precipitation 11.99 10.69  
Sea Level Pressure  
Sea Level Pressure 29.83 in    
Wind  
Wind Speed 7 mph (WNW)    
Max Wind Speed 23 mph    
Max Gust Speed 28 mph    
Visibility 7 miles    
Events Snow    
T = Trace of Precipitation, MM = Missing Value Source: NWS Daily Summary

Daily Weather History Graph

Daily Weather History Graph

Search for Another Location

Airport or City:

Trip Planner

Search our weather history database for the weather conditions in past years. The results will help you decide how hot, cold, wet, or windy it might be!

Date:

Astronomy

Dec. 08, 2013 Rise Set
Actual Time 7:16 AM MST 4:33 PM MST
Civil Twilight 6:45 AM MST 5:04 PM MST
Nautical Twilight 6:10 AM MST 5:39 PM MST
Astronomical Twilight 5:36 AM MST 6:12 PM MST
Moon 11:35 AM MST (12/8) 11:29 PM MST (12/8)
Length of Visible Light 10h 19m
Length of Day
9h 17m
Waxing Crescent, 40% of the Moon is Illuminated
Dec 8
Waxing Crescent
Dec 9
First Quarter
Dec 17
Full
Dec 25
Last Quarter
Jan 1
New

Hourly Weather History & Observations

Time (MST) Temp. Windchill Dew Point Humidity Pressure Visibility Wind Dir Wind Speed Gust Speed Precip Events Conditions
12:53 AM -0.9 °F -11.0 °F -2.9 °F 91% 29.74 in 5.0 mi North 4.6 mph - N/A   Scattered Clouds
1:53 AM -0.0 °F -9.9 °F -2.9 °F 88% 29.76 in 9.0 mi ENE 4.6 mph - N/A   Clear
2:53 AM -5.1 °F - -8.0 °F 87% 29.79 in 5.0 mi Calm Calm - N/A   Partly Cloudy
3:37 AM -7.6 °F -16.5 °F -9.4 °F 92% 29.53 in 2.5 mi South 3.5 mph - N/A   Clear
3:46 AM -9.4 °F -18.6 °F -11.2 °F 92% 29.52 in 4.0 mi South 3.5 mph - N/A   Clear
3:53 AM -8.0 °F -16.9 °F -13.0 °F 79% 29.81 in 4.0 mi South 3.5 mph - N/A   Haze
4:07 AM -7.6 °F -18.8 °F -11.2 °F 84% 29.52 in 2.5 mi SW 4.6 mph - N/A   Clear
4:15 AM -11.2 °F -24.8 °F -14.8 °F 84% 29.52 in 3.0 mi WSW 5.8 mph - N/A   Clear
4:53 AM -9.9 °F -23.4 °F -13.0 °F 86% 29.84 in 6.0 mi WSW 5.8 mph - N/A   Clear
5:53 AM -6.0 °F - -9.9 °F 83% 29.84 in 8.0 mi Calm Calm - N/A   Mostly Cloudy
6:24 AM -7.6 °F - -11.2 °F 84% 29.55 in 2.5 mi Calm Calm - 0.00 in Snow Light Snow
6:31 AM -5.8 °F -14.5 °F -9.4 °F 84% 29.55 in 4.0 mi WSW 3.5 mph - 0.00 in   Overcast
6:53 AM -4.0 °F - -8.0 °F 83% 29.84 in 4.0 mi Calm Calm - 0.00 in   Overcast
6:56 AM -5.8 °F - -9.4 °F 84% 29.56 in 1.8 mi Calm Calm - N/A   Overcast
7:13 AM -7.6 °F - -11.2 °F 84% 29.57 in 3.0 mi Calm Calm - N/A   Mostly Cloudy
7:25 AM -7.6 °F - -11.2 °F 84% 29.57 in 2.5 mi Calm Calm - N/A   Haze
7:34 AM -5.8 °F -16.7 °F -11.2 °F 77% 29.58 in 6.0 mi East 4.6 mph - N/A   Haze
7:53 AM -6.0 °F -16.9 °F -9.9 °F 83% 29.88 in 6.0 mi ENE 4.6 mph - N/A   Overcast
8:28 AM -4.0 °F -14.6 °F -9.4 °F 78% 29.61 in 3.0 mi NNE 4.6 mph - N/A   Haze
8:45 AM -2.2 °F -19.9 °F -7.6 °F 78% 29.62 in 6.0 mi NE 11.5 mph - N/A   Scattered Clouds
8:53 AM -2.9 °F -18.8 °F -8.0 °F 79% 29.93 in 9.0 mi NE 9.2 mph - N/A   Scattered Clouds
9:53 AM -2.0 °F -10.1 °F -5.1 °F 87% 29.97 in 10.0 mi East 3.5 mph - N/A   Scattered Clouds
10:53 AM 1.9 °F -9.2 °F -2.9 °F 80% 29.98 in 10.0 mi East 5.8 mph - N/A   Partly Cloudy
11:53 AM 5.0 °F -5.6 °F -0.9 °F 76% 29.99 in 10.0 mi ENE 5.8 mph - N/A   Partly Cloudy
12:53 PM 7.0 °F - -0.0 °F 73% 29.93 in 10.0 mi Calm Calm - N/A   Clear
1:53 PM 8.1 °F -5.3 °F -2.0 °F 64% 29.93 in 10.0 mi WNW 9.2 mph - N/A   Clear
2:30 PM 8.6 °F -9.5 °F -4.0 °F 57% 29.67 in 10.0 mi West 17.3 mph - N/A   Clear
2:53 PM 7.0 °F -8.3 °F -2.0 °F 67% 29.98 in 10.0 mi West 11.5 mph - N/A   Clear
3:53 PM 6.1 °F -13.8 °F -2.9 °F 67% 30.04 in 10.0 mi West 19.6 mph - N/A   Overcast
4:53 PM 3.9 °F -16.1 °F -4.0 °F 70% 30.08 in 10.0 mi WSW 18.4 mph - N/A   Partly Cloudy
5:53 PM 1.9 °F -19.8 °F -6.0 °F 69% 30.07 in 10.0 mi West 20.7 mph - N/A   Clear
6:53 PM -0.9 °F -18.3 °F -9.0 °F 69% 30.13 in 10.0 mi WSW 11.5 mph - N/A   Clear
7:53 PM 1.0 °F -8.7 °F -8.0 °F 66% 30.14 in 10.0 mi NNE 4.6 mph - N/A   Mostly Cloudy
8:53 PM 1.0 °F - -6.0 °F 72% 30.13 in 10.0 mi Calm Calm - N/A   Overcast
9:53 PM 1.0 °F -11.7 °F -7.1 °F 69% 30.14 in 10.0 mi West 6.9 mph - N/A   Overcast
10:53 PM -2.9 °F -20.8 °F -11.9 °F 65% 30.15 in 10.0 mi WNW 11.5 mph - N/A   Clear
11:53 PM -2.0 °F -13.9 °F -15.0 °F 54% 30.12 in 10.0 mi WNW 5.8 mph - N/A   Mostly Cloudy